AirNav   Air Wisconsin Up To $57,000 Bonus
 
 467 users online  

94PA Mountain Springs Heliport
Coudersport, Pennsylvania, USA

GOING TO COUDERSPORT?


FAA INFORMATION EFFECTIVE 15 JULY 2021

Location

FAA Identifier: 94PA
Lat/Long: 41-46-12.2360N 078-00-39.0150W
41-46.203933N 078-00.650250W
41.7700656,-78.0108375
(estimated)
Elevation: 1810 ft. / 552 m (estimated)
Variation: 10W (1985)
From city: 1 mile SE of COUDERSPORT, PA
Time zone: UTC -4 (UTC -5 during Standard Time)
Zip code: 16915

Heliport Operations

Heliport use: Private use. Permission required prior to landing
Activation date: 08/1969
Control tower: no
ARTCC: CLEVELAND CENTER
FSS: ALTOONA FLIGHT SERVICE STATION
Attendance: IREG
Wind indicator: yes
Segmented circle: no

Nearby radio navigation aids

VOR radial/distance  VOR name  Freq  Var
SLTr001/15.5SLATE RUN VORTAC113.9008W
SFKr288/26.8STONYFORK VOR/DME108.6008W
ETGr020/33.8KEATING VORTAC116.0010W

Heliport Services

Airframe service: NONE
Powerplant service: NONE

Runway Information

Helipad H1

Dimensions: 200 x 200 ft. / 61 x 61 m
Surface: asphalt/turf, in fair condition
Latitude: 41-46.203933N
Longitude: 078-00.650250W
Elevation: 1810.0 ft.
Traffic pattern: rightleft
Markings: none, in fair condition

Heliport Ownership and Management from official FAA records

Ownership: Privately-owned
Owner: CLIFFORD B. CARTS
COUDERSPORT, PA 16915
Phone 814-274-8834
Manager: CLIFFORD B. CARTS
COUDERSPORT, PA 16915
Phone 814-274-8834

Heliport Operational Statistics

Aircraft based on the field: 1
Helicopters: 1
    

Additional Remarks

A52-H1 MOUNTAIN SIDE SOUTH.
FOR CD CTC CLEVELAND ARTCC AT 440-774-0227.

Instrument Procedures

There are no published instrument procedures at 94PA.

Some nearby airports with instrument procedures:

KELZ - Wellsville Municipal Airport/Tarantine Field (20 nm N)
N38 - Wellsboro Johnston Airport (28 nm E)
KBFD - Bradford Regional Airport (28 nm W)
KOYM - St Marys Municipal Airport (31 nm SW)
KOLE - Cattaraugus County-Olean Airport (33 nm NW)
 
Loc | Ops | Rwys | IFR | FBO | Links
Com | Nav | Svcs | Stats | Notes
Area around 94PA (Mountain Springs Heliport)
 
Road maps at: MapQuest Bing Google
 
Aerial photo
No photo
 
Sectional chart

 
Airport distance calculator
Flying to Mountain Springs Heliport? Find the distance to fly.

From to 94PA

Sunrise and sunset
Times for 31-Jul-2021
 Local
(UTC-4)
 Zulu
(UTC)
Morning civil twilight05:3509:35
Sunrise06:0610:06
Sunset20:3100:31
Evening civil twilight21:0201:02

Current date and time
Zulu (UTC)  31-Jul-2021 06:42:44
Local (UTC-4)  31-Jul-2021 02:42:44
 
METAR
KELZ 
20nm N 
310613Z AUTO 35003KT 10SM OVC031 11/09 A3007 RMK AO2 T01060094
KN38 
28nm E 
310615Z AUTO 00000KT 10SM OVC036 10/09 A3004 RMK AO2
KBFD 
28nm W 
310553Z AUTO 00000KT 10SM CLR 09/07 A3006 RMK AO2 SLP174 T00890067 10167 20083 55001
KOYM 
31nm SW 
310616Z AUTO 00000KT 10SM BKN100 OVC120 09/09 A3009 RMK AO2 PWINO
KOLE 
32nm NW 
310615Z AUTO 00000KT 10SM OVC033 11/08 A3007 RMK AO2
TAF
KBFD 
28nm W 
310528Z 3106/0106 00000KT P6SM SKC FM310900 00000KT 4SM BR VCFG SKC FM311200 29006KT P6SM SCT250 FM010000 00000KT P6SM SKC
NOTAMs
Click for the latest NOTAMs
NOTAMs are issued by the DoD/FAA and will open in a separate window not controlled by AirNav.

 

 
 

Would you like to see your business listed on this page?

 If your business provides an interesting product or service to pilots, flight crews, aircraft, or users of the Mountain Springs Heliport, you should consider listing it here.  To start the listing process, click on the button below
 
Add a business
 

Other Pages about Mountain Springs Heliport

Update a link
 
Copyright © AirNav, LLC. All rights reserved. Privacy Policy  Contact